Time,TemperatureF,DewpointF,PressureIn,WindDirection,WindDirectionDegrees,WindSpeedMPH,WindSpeedGustMPH,Humidity,HourlyPrecipIn,Conditions,Clouds,dailyrainin,SoftwareType,DateUTC
2013-06-03 00:00:00,33.0,33.0,-100.00,WNW,298,15.0,20.0,100,-99.99,,,-99.99,,2013-06-03 07:00:00,
2013-06-03 00:52:00,33.0,33.0,-100.00,WNW,298,15.0,20.0,100,-99.99,,,-99.99,,2013-06-03 07:52:00,
2013-06-03 01:00:00,32.0,32.0,-100.00,WNW,296,17.0,20.0,100,-99.99,,,-99.99,,2013-06-03 08:00:00,
2013-06-03 01:52:00,32.0,32.0,-100.00,WNW,296,17.0,20.0,100,-99.99,,,-99.99,,2013-06-03 08:52:00,
2013-06-03 02:00:00,32.0,31.0,-100.00,NNW,336,16.0,18.0,96,-99.99,,,-99.99,,2013-06-03 09:00:00,
2013-06-03 02:53:00,32.0,31.0,-100.00,NNW,336,16.0,18.0,96,-99.99,,,-99.99,,2013-06-03 09:53:00,
2013-06-03 03:00:00,33.0,31.0,-100.00,NW,306,15.0,18.0,93,-99.99,,,-99.99,,2013-06-03 10:00:00,
2013-06-03 03:52:00,33.0,31.0,-100.00,NW,306,15.0,18.0,93,-99.99,,,-99.99,,2013-06-03 10:52:00,
2013-06-03 04:00:00,32.0,32.0,-100.00,WNW,290,15.0,18.0,98,-99.99,,,-99.99,,2013-06-03 11:00:00,
2013-06-03 04:52:00,32.0,32.0,-100.00,WNW,290,15.0,18.0,98,-99.99,,,-99.99,,2013-06-03 11:52:00,
2013-06-03 05:00:00,32.0,31.0,-100.00,WNW,301,16.0,18.0,96,-99.99,,,-99.99,,2013-06-03 12:00:00,
2013-06-03 05:52:00,32.0,31.0,-100.00,WNW,301,16.0,18.0,96,-99.99,,,-99.99,,2013-06-03 12:52:00,
2013-06-03 06:00:00,33.0,32.0,-100.00,NW,313,16.0,18.0,96,-99.99,,,-99.99,,2013-06-03 13:00:00,
2013-06-03 06:52:00,33.0,32.0,-100.00,NW,313,16.0,18.0,96,-99.99,,,-99.99,,2013-06-03 13:52:00,
2013-06-03 07:00:00,33.0,32.0,-100.00,NW,320,15.0,18.0,97,-99.99,,,-99.99,,2013-06-03 14:00:00,
2013-06-03 07:52:00,33.0,32.0,-100.00,NW,320,15.0,18.0,97,-99.99,,,-99.99,,2013-06-03 14:52:00,
2013-06-03 08:00:00,35.0,32.0,-100.00,NNW,331,13.0,17.0,90,-99.99,,,-99.99,,2013-06-03 15:00:00,
2013-06-03 08:53:00,35.0,32.0,-100.00,NNW,331,13.0,17.0,90,-99.99,,,-99.99,,2013-06-03 15:53:00,
2013-06-03 09:00:00,37.0,31.0,-100.00,NNW,336,12.0,16.0,80,-99.99,,,-99.99,,2013-06-03 16:00:00,
2013-06-03 09:53:00,37.0,31.0,-100.00,NNW,336,12.0,16.0,80,-99.99,,,-99.99,,2013-06-03 16:53:00,
2013-06-03 10:00:00,37.0,32.0,-100.00,NNW,329,9.0,13.0,81,-99.99,,,-99.99,,2013-06-03 17:00:00,
2013-06-03 10:52:00,37.0,32.0,-100.00,NNW,329,9.0,13.0,81,-99.99,,,-99.99,,2013-06-03 17:52:00,
2013-06-03 11:00:00,40.0,33.0,-100.00,WNW,299,7.0,12.0,77,-99.99,,,-99.99,,2013-06-03 18:00:00,
2013-06-03 11:52:00,40.0,33.0,-100.00,WNW,299,7.0,12.0,77,-99.99,,,-99.99,,2013-06-03 18:52:00,
2013-06-03 12:00:00,42.0,31.0,-100.00,NW,322,7.0,12.0,64,-99.99,,,-99.99,,2013-06-03 19:00:00,
2013-06-03 12:52:00,42.0,31.0,-100.00,NW,322,7.0,12.0,64,-99.99,,,-99.99,,2013-06-03 19:52:00,
2013-06-03 13:00:00,44.0,33.0,-100.00,NW,312,7.0,13.0,64,-99.99,,,-99.99,,2013-06-03 20:00:00,
2013-06-03 13:52:00,44.0,33.0,-100.00,NW,312,7.0,13.0,64,-99.99,,,-99.99,,2013-06-03 20:52:00,
2013-06-03 14:00:00,46.0,35.0,-100.00,NNW,331,9.0,16.0,65,-99.99,,,-99.99,,2013-06-03 21:00:00,
2013-06-03 14:53:00,46.0,35.0,-100.00,NNW,331,9.0,16.0,65,-99.99,,,-99.99,,2013-06-03 21:53:00,
2013-06-03 15:00:00,46.0,36.0,-100.00,West,272,12.0,20.0,67,-99.99,,,-99.99,,2013-06-03 22:00:00,
2013-06-03 15:53:00,46.0,36.0,-100.00,West,272,12.0,20.0,67,-99.99,,,-99.99,,2013-06-03 22:53:00,
2013-06-03 16:00:00,47.0,37.0,-100.00,WNW,283,13.0,23.0,67,-99.99,,,-99.99,,2013-06-03 23:00:00,
2013-06-03 16:52:00,47.0,37.0,-100.00,WNW,283,13.0,23.0,67,-99.99,,,-99.99,,2013-06-03 23:52:00,
2013-06-03 17:00:00,46.0,35.0,-100.00,West,273,16.0,23.0,66,-99.99,,,-99.99,,2013-06-04 00:00:00,
2013-06-03 17:52:00,46.0,35.0,-100.00,West,273,16.0,23.0,66,-99.99,,,-99.99,,2013-06-04 00:52:00,
2013-06-03 18:00:00,47.0,36.0,-100.00,West,261,14.0,24.0,66,-99.99,,,-99.99,,2013-06-04 01:00:00,
2013-06-03 18:52:00,47.0,36.0,-100.00,West,261,14.0,24.0,66,-99.99,,,-99.99,,2013-06-04 01:52:00,
2013-06-03 19:00:00,45.0,34.0,-100.00,West,277,15.0,22.0,66,-99.99,,,-99.99,,2013-06-04 02:00:00,
2013-06-03 19:52:00,45.0,34.0,-100.00,West,277,15.0,22.0,66,-99.99,,,-99.99,,2013-06-04 02:52:00,
2013-06-03 20:00:00,45.0,37.0,-100.00,West,274,14.0,22.0,73,-99.99,,,-99.99,,2013-06-04 03:00:00,
2013-06-03 20:53:00,45.0,37.0,-100.00,West,274,14.0,22.0,73,-99.99,,,-99.99,,2013-06-04 03:53:00,
2013-06-03 21:00:00,39.0,34.0,-100.00,WNW,296,15.0,20.0,83,-99.99,,,-99.99,,2013-06-04 04:00:00,
2013-06-03 21:53:00,39.0,34.0,-100.00,WNW,296,15.0,20.0,83,-99.99,,,-99.99,,2013-06-04 04:53:00,
2013-06-03 22:00:00,38.0,36.0,-100.00,WNW,298,12.0,20.0,91,-99.99,,,-99.99,,2013-06-04 05:00:00,
2013-06-03 22:52:00,38.0,36.0,-100.00,WNW,298,12.0,20.0,91,-99.99,,,-99.99,,2013-06-04 05:52:00,
2013-06-03 23:00:00,38.0,28.0,-100.00,North,349,13.0,16.0,66,-99.99,,,-99.99,,2013-06-04 06:00:00,
2013-06-03 23:52:00,38.0,28.0,-100.00,North,349,13.0,16.0,66,-99.99,,,-99.99,,2013-06-04 06:52:00,